Tiempo cada hora Dahegam

Hoy, 3 Diciembre, Jueves

Tiempo Temperatura Precipitaciones Viento Presión Humedad
00:00 +24°C° 0 mm 1 mps 753 mmHg 30%
01:00 +23°C° 0 mm 2 mps 753 mmHg 31%
02:00 +23°C° 0 mm 2 mps 753 mmHg 32%
03:00 +21°C° 0 mm 2 mps 753 mmHg 33%
04:00 +21°C° 0 mm 3 mps 753 mmHg 34%
05:00 +20°C° 0 mm 3 mps 753 mmHg 35%
06:00 +21°C° 0 mm 3 mps 753 mmHg 35%
07:00 +21°C° 0 mm 3 mps 754 mmHg 36%
08:00 +22°C° 0 mm 3 mps 754 mmHg 36%
09:00 +26°C° 0 mm 3 mps 754 mmHg 32%
10:00 +29°C° 0 mm 3 mps 754 mmHg 28%
11:00 +31°C° 0 mm 3 mps 754 mmHg 24%
12:00 +32°C° 0 mm 2 mps 753 mmHg 23%
13:00 +34°C° 0 mm 2 mps 753 mmHg 21%
14:00 +34°C° 0 mm 1 mps 752 mmHg 19%
15:00 +33°C° 0 mm 1 mps 752 mmHg 21%
16:00 +32°C° 0 mm 1 mps 752 mmHg 23%
17:00 +28°C° 0 mm 0 mps 751 mmHg 26%
18:00 +27°C° 0 mm 0 mps 752 mmHg 27%
19:00 +26°C° 0 mm 0 mps 752 mmHg 27%
20:00 +24°C° 0 mm 0 mps 753 mmHg 28%
21:00 +24°C° 0 mm 0 mps 753 mmHg 29%
22:00 +25°C° 0 mm 1 mps 753 mmHg 30%
23:00 +25°C° 0 mm 1 mps 752 mmHg 30%

Mañana, 4 Diciembre, Viernes

Tiempo Temperatura Precipitaciones Viento Presión Humedad
00:00 +24°C° 0 mm 1 mps 752 mmHg 32%
01:00 +24°C° 0 mm 1 mps 752 mmHg 33%
02:00 +23°C° 0 mm 1 mps 751 mmHg 34%
03:00 +23°C° 0 mm 1 mps 751 mmHg 34%
04:00 +21°C° 0 mm 2 mps 751 mmHg 35%
05:00 +21°C° 0 mm 2 mps 751 mmHg 35%
06:00 +21°C° 0 mm 2 mps 752 mmHg 34%
07:00 +23°C° 0 mm 2 mps 752 mmHg 34%
08:00 +24°C° 0 mm 2 mps 753 mmHg 33%
09:00 +26°C° 0 mm 2 mps 753 mmHg 29%
10:00 +29°C° 0 mm 2 mps 753 mmHg 25%
11:00 +32°C° 0 mm 2 mps 753 mmHg 22%
12:00 +33°C° 0 mm 1 mps 752 mmHg 20%
13:00 +34°C° 0 mm 1 mps 751 mmHg 19%
14:00 +33°C° 0 mm 0 mps 751 mmHg 18%
15:00 +31°C° 0 mm 0 mps 751 mmHg 20%
16:00 +30°C° 0 mm 0 mps 750 mmHg 23%
17:00 +28°C° 0 mm 0 mps 750 mmHg 25%
18:00 +29°C° 0 mm 1 mps 751 mmHg 26%
19:00 +28°C° 0 mm 1 mps 751 mmHg 26%
20:00 +27°C° 0 mm 1 mps 752 mmHg 27%
21:00 +26°C° 0 mm 1 mps 752 mmHg 28%
22:00 +25°C° 0 mm 2 mps 752 mmHg 29%
23:00 +25°C° 0 mm 2 mps 752 mmHg 30%

Pasado mañana, 5 Diciembre, Sábado

Tiempo Temperatura Precipitaciones Viento Presión Humedad
00:00 +24°C° 0 mm 2 mps 751 mmHg 31%
01:00 +23°C° 0 mm 2 mps 751 mmHg 32%
02:00 +23°C° 0 mm 2 mps 751 mmHg 33%
03:00 +21°C° 0 mm 2 mps 751 mmHg 35%
04:00 +22°C° 0 mm 1 mps 751 mmHg 36%
05:00 +22°C° 0 mm 1 mps 751 mmHg 37%
06:00 +23°C° 0 mm 1 mps 752 mmHg 36%
07:00 +23°C° 0 mm 1 mps 752 mmHg 36%
08:00 +24°C° 0 mm 1 mps 753 mmHg 36%
09:00 +27°C° 0 mm 1 mps 753 mmHg 32%
10:00 +29°C° 0 mm 1 mps 753 mmHg 28%
11:00 +31°C° 0 mm 1 mps 753 mmHg 24%
12:00 +33°C° 0 mm 1 mps 752 mmHg 22%
13:00 +34°C° 0 mm 1 mps 752 mmHg 20%
14:00 +33°C° 0 mm 0 mps 751 mmHg 18%
15:00 +33°C° 0 mm 1 mps 751 mmHg 20%
16:00 +32°C° 0 mm 1 mps 751 mmHg 23%
17:00 +30°C° 0 mm 1 mps 751 mmHg 25%
18:00 +29°C° 0 mm 1 mps 751 mmHg 26%
19:00 +28°C° 0 mm 1 mps 752 mmHg 27%
20:00 +26°C° 0 mm 1 mps 752 mmHg 28%
21:00 +26°C° 0 mm 1 mps 752 mmHg 29%
22:00 +26°C° 0 mm 2 mps 752 mmHg 30%
23:00 +25°C° 0 mm 2 mps 753 mmHg 31%

6 Diciembre, Domingo

Tiempo Temperatura Precipitaciones Viento Presión Humedad
00:00 +24°C° 0 mm 2 mps 753 mmHg 32%
01:00 +24°C° 0 mm 2 mps 752 mmHg 33%
02:00 +23°C° 0 mm 2 mps 752 mmHg 34%
03:00 +23°C° 0 mm 2 mps 752 mmHg 35%
04:00 +23°C° 0 mm 2 mps 752 mmHg 35%
05:00 +21°C° 0 mm 2 mps 753 mmHg 36%
06:00 +23°C° 0 mm 2 mps 753 mmHg 35%
07:00 +23°C° 0 mm 2 mps 754 mmHg 35%
08:00 +24°C° 0 mm 3 mps 755 mmHg 35%
09:00 +27°C° 0 mm 2 mps 755 mmHg 31%
10:00 +29°C° 0 mm 2 mps 755 mmHg 27%
11:00 +32°C° 0 mm 2 mps 755 mmHg 23%
12:00 +34°C° 0 mm 2 mps 754 mmHg 21%
13:00 +34°C° 0 mm 1 mps 753 mmHg 20%
14:00 +33°C° 0 mm 0 mps 753 mmHg 18%
15:00 +34°C° 0 mm 1 mps 752 mmHg 20%
16:00 +32°C° 0 mm 1 mps 752 mmHg 23%
17:00 +31°C° 0 mm 1 mps 752 mmHg 25%
18:00 +30°C° 0 mm 1 mps 753 mmHg 26%
19:00 +28°C° 0 mm 1 mps 753 mmHg 27%
20:00 +27°C° 0 mm 2 mps 754 mmHg 27%
21:00 +27°C° 0 mm 2 mps 754 mmHg 28%
22:00 +26°C° 0 mm 2 mps 754 mmHg 29%
23:00 +25°C° 0 mm 2 mps 754 mmHg 30%

7 Diciembre, Lunes

Tiempo Temperatura Precipitaciones Viento Presión Humedad
00:00 +25°C° 0 mm 2 mps 754 mmHg 31%
01:00 +24°C° 0 mm 2 mps 754 mmHg 32%
02:00 +24°C° 0 mm 2 mps 754 mmHg 34%
03:00 +23°C° 0 mm 2 mps 753 mmHg 34%
04:00 +23°C° 0 mm 2 mps 753 mmHg 34%
05:00 +22°C° 0 mm 3 mps 753 mmHg 34%
06:00 +22°C° 0 mm 3 mps 754 mmHg 34%
07:00 +24°C° 0 mm 3 mps 755 mmHg 34%
08:00 +24°C° 0 mm 3 mps 755 mmHg 35%
09:00 +27°C° 0 mm 3 mps 755 mmHg 30%
10:00 +30°C° 0 mm 3 mps 755 mmHg 26%
11:00 +34°C° 0 mm 3 mps 755 mmHg 22%
12:00 +35°C° 0 mm 2 mps 755 mmHg 20%
13:00 +36°C° 0 mm 2 mps 754 mmHg 19%
14:00 +36°C° 0 mm 2 mps 753 mmHg 17%
15:00 +34°C° 0 mm 1 mps 753 mmHg 20%
16:00 +33°C° 0 mm 1 mps 753 mmHg 22%
17:00 +29°C° 0 mm 0 mps 753 mmHg 24%
18:00 +28°C° 0 mm 0 mps 754 mmHg 25%
19:00 +29°C° 0 mm 1 mps 754 mmHg 26%
20:00 +27°C° 0 mm 1 mps 755 mmHg 27%
21:00 +27°C° 0 mm 1 mps 755 mmHg 28%
22:00 +26°C° 0 mm 1 mps 755 mmHg 29%
23:00 +26°C° 0 mm 2 mps 755 mmHg 30%

8 Diciembre, Martes

Tiempo Temperatura Precipitaciones Viento Presión Humedad
00:00 +25°C° 0 mm 2 mps 755 mmHg 32%
01:00 +24°C° 0 mm 2 mps 754 mmHg 33%
02:00 +24°C° 0 mm 2 mps 754 mmHg 34%
03:00 +24°C° 0 mm 2 mps 754 mmHg 34%
04:00 +23°C° 0 mm 2 mps 754 mmHg 35%
05:00 +22°C° 0 mm 3 mps 754 mmHg 35%
06:00 +22°C° 0 mm 3 mps 755 mmHg 35%
07:00 +24°C° 0 mm 3 mps 755 mmHg 35%
08:00 +24°C° 0 mm 3 mps 756 mmHg 35%
09:00 +27°C° 0 mm 3 mps 756 mmHg 31%
10:00 +30°C° 0 mm 3 mps 756 mmHg 27%
11:00 +34°C° 0 mm 3 mps 756 mmHg 23%
12:00 +35°C° 0 mm 2 mps 755 mmHg 21%
13:00 +36°C° 0 mm 2 mps 754 mmHg 20%
14:00 +35°C° 0 mm 1 mps 753 mmHg 18%
15:00 +34°C° 0 mm 1 mps 753 mmHg 20%
16:00 +33°C° 0 mm 1 mps 753 mmHg 22%
17:00 +29°C° 0 mm 0 mps 753 mmHg 25%
18:00 +30°C° 0 mm 1 mps 754 mmHg 25%
19:00 +29°C° 0 mm 1 mps 754 mmHg 26%
20:00 +28°C° 0 mm 1 mps 755 mmHg 27%
21:00 +27°C° 0 mm 2 mps 755 mmHg 28%
22:00 +26°C° 0 mm 2 mps 755 mmHg 29%
23:00 +26°C° 0 mm 2 mps 755 mmHg 30%
Mostrar más

Necesitamos Su Consentimiento

Meteoprog y nuestros Proveedores de Servicios pueden almacenar y acceder a sus datos personales como cookies, identificadores de dispositivo u otras tecnologías similares de su dispositivo y procesar dichos datos para personalizar contenido y anuncios, además de ofrecer funciones de redes sociales y analizar el tráfico.

  • Almacenar y/o acceder a información en su dispositivo

    Se puede almacenar o acceder a cookies, identificadores de dispositivo u otra información de su dispositivo para los fines anteriormente indicados.

  • Anuncios y contenido personalizados, medición de anuncios y contenido, percepciones del público, y desarrollo de productos

    Los anuncios y el contenido pueden personalizarse en base a su perfil. Se pueden añadir más datos para personalizar mejor los anuncios y contenidos. Se puede medir el rendimiento de los anuncios y contenidos. Se puede obtener la percepción sobre el público que ha visto los anuncios y contenidos. Dichos datos pueden usarse para desarrollar o mejorar la experiencia del usuario, sistemas y software.

Al hacer clic en ‘Estoy De Acuerdo’ usted permitirá el uso de las cookies, identificadores de dispositivo, balizas web u otras tecnologías similares indicadas. Su configuración puede cambiarse desde el navegador de su dispositivo.

Para ciertos fines, los intereses legítimos pueden ser considerados por encima del consentimiento. Puede leer más sobre ello en nuestra Política de Privacidad y Cookies.